Sanford, ME

8:00 PM EDT on May 25, 2017 (GMT -0400)
Sanford Regional

Weather History for KSFM - August, 2012

Change the Weather History Date:

Friday, August 3, 2012

  Actual Average Record
Temperature  
Mean Temperature 76 °F -  
Max Temperature 91 °F 78 °F 93 °F (2002)
Min Temperature 60 °F 55 °F 21 °F (1999)
Cooling Degree Days 10    
Growing Degree Days 26 (Base 50)    
Moisture  
Dew Point 66 °F    
Average Humidity 77    
Maximum Humidity 100    
Minimum Humidity 41    
Precipitation  
Precipitation 0.00 in - - ()
Sea Level Pressure  
Sea Level Pressure 29.95 in    
Wind  
Wind Speed 2 mph (WSW)    
Max Wind Speed 12 mph    
Max Gust Speed 17 mph    
Visibility 8 miles    
Events      
Averages and records for this station are not official NWS values.
T = Trace of Precipitation, MM = Missing Value Source: NWS Daily Summary

Daily Weather History Graph

Daily Weather History Graph

Search for Another Location

Airport or City:

Trip Planner

Search our weather history database for the weather conditions in past years. The results will help you decide how hot, cold, wet, or windy it might be!

Date:

Astronomy

Aug. 03, 2012 Rise Set
Actual Time 5:35 AM EDT 8:01 PM EDT
Civil Twilight 5:03 AM EDT 8:34 PM EDT
Nautical Twilight 4:22 AM EDT 9:14 PM EDT
Astronomical Twilight 3:37 AM EDT 9:58 PM EDT
Moon 8:32 PM EDT (8/3) 7:19 AM EDT (8/3)
Length of Visible Light 15h 31m
Length of Day
14h 26m
Full, 97% of the Moon is Illuminated
Aug 3
Full
Aug 9
Last Quarter
Aug 17
New
Aug 24
First Quarter
Aug 31
Full

Hourly Weather History & Observations

Time (EDT) Temp. Heat Index Dew Point Humidity Pressure Visibility Wind Dir Wind Speed Gust Speed Precip Events Conditions
12:15 AM 64.4 °F - 62.6 °F 94% 29.87 in 6.0 mi Calm Calm - N/A   Clear
12:35 AM 62.6 °F - 62.6 °F 100% 29.87 in 4.0 mi Calm Calm - N/A   Clear
1:35 AM 62.6 °F - 60.8 °F 94% 29.87 in 4.0 mi Calm Calm - N/A   Clear
1:55 AM 62.6 °F - 60.8 °F 94% 29.87 in 5.0 mi Calm Calm - N/A   Clear
2:15 AM 62.6 °F - 60.8 °F 94% 29.88 in 8.0 mi Calm Calm - N/A   Clear
2:35 AM 60.8 °F - 59.0 °F 94% 29.88 in 5.0 mi Calm Calm - N/A   Clear
2:55 AM 60.8 °F - 59.0 °F 94% 29.87 in 3.0 mi SSW 4.6 mph - N/A   Clear
3:15 AM 62.6 °F - 60.8 °F 94% 29.88 in 5.0 mi Calm Calm - N/A   Clear
3:35 AM 62.6 °F - 60.8 °F 94% 29.88 in 0.8 mi SW 3.5 mph - N/A   Unknown
3:55 AM 62.6 °F - 60.8 °F 94% 29.88 in 0.2 mi WSW 3.5 mph - N/A   Unknown
4:15 AM 62.6 °F - 62.6 °F 100% 29.88 in 1.5 mi WSW 4.6 mph - N/A   Clear
4:35 AM 64.4 °F - 64.4 °F 100% 29.89 in 2.5 mi Calm Calm - N/A   Clear
4:55 AM 64.4 °F - 62.6 °F 94% 29.89 in 3.0 mi Calm Calm - N/A   Clear
5:15 AM 64.4 °F - 62.6 °F 94% 29.89 in 4.0 mi Calm Calm - N/A   Clear
5:35 AM 64.4 °F - 62.6 °F 94% 29.90 in 3.0 mi Calm Calm - N/A   Clear
5:55 AM 64.4 °F - 62.6 °F 94% 29.90 in 3.0 mi Calm Calm - N/A   Clear
6:15 AM 64.4 °F - 62.6 °F 94% 29.91 in 3.0 mi Calm Calm - N/A   Clear
6:35 AM 64.4 °F - 62.6 °F 94% 29.91 in 3.0 mi Calm Calm - N/A   Clear
6:55 AM 66.2 °F - 64.4 °F 94% 29.92 in 3.0 mi Calm Calm - N/A   Clear
7:15 AM 66.2 °F - 64.4 °F 94% 29.93 in 6.0 mi Calm Calm - N/A   Clear
7:35 AM 69.8 °F - 66.2 °F 88% 29.93 in 10.0 mi Calm Calm - N/A   Clear
8:15 AM 75.2 °F - 66.2 °F 73% 29.94 in 10.0 mi WSW 5.8 mph - N/A   Clear
8:35 AM 75.2 °F - 66.2 °F 73% 29.94 in 10.0 mi SW 4.6 mph - N/A   Clear
8:55 AM 75.2 °F - 66.2 °F 73% 29.94 in 10.0 mi WSW 5.8 mph - N/A   Clear
9:15 AM 78.8 °F - 66.2 °F 65% 29.94 in 10.0 mi WSW 5.8 mph - N/A   Clear
9:35 AM 82.4 °F 85.4 °F 68.0 °F 62% 29.94 in 10.0 mi SW 4.6 mph - N/A   Clear
9:55 AM 82.4 °F 85.4 °F 68.0 °F 62% 29.94 in 10.0 mi SW 5.8 mph - N/A   Clear
10:15 AM 84.2 °F 87.3 °F 68.0 °F 58% 29.95 in 10.0 mi SW 6.9 mph - N/A   Clear
10:35 AM 87.8 °F 91.4 °F 68.0 °F 52% 29.95 in 10.0 mi WSW 8.1 mph - N/A   Scattered Clouds
11:15 AM 87.8 °F 91.4 °F 68.0 °F 52% 29.95 in 10.0 mi West 10.4 mph - N/A   Clear
11:35 AM 87.8 °F 90.4 °F 66.2 °F 49% 29.95 in 10.0 mi WNW 5.8 mph - N/A   Clear
11:55 AM 89.6 °F 92.2 °F 66.2 °F 46% 29.94 in 10.0 mi WSW 9.2 mph - N/A   Clear
12:15 PM 89.6 °F 91.1 °F 64.4 °F 43% 29.95 in 10.0 mi West 5.8 mph - N/A   Clear
12:35 PM 89.6 °F 92.2 °F 66.2 °F 46% 29.95 in 10.0 mi West 6.9 mph - N/A   Clear
12:55 PM 89.6 °F 91.1 °F 64.4 °F 43% 29.95 in 10.0 mi NW 11.5 mph 16.1 mph N/A   Clear
1:15 PM 89.6 °F 92.2 °F 66.2 °F 46% 29.95 in 10.0 mi West 9.2 mph - N/A   Partly Cloudy
3:35 PM 91.4 °F 93.2 °F 64.4 °F 41% 29.96 in 10.0 mi WSW 6.9 mph 17.3 mph N/A   Clear
5:55 PM 89.6 °F 92.2 °F 66.2 °F 46% 29.97 in 10.0 mi WSW 10.4 mph - N/A   Clear
6:15 PM 87.8 °F 90.4 °F 66.2 °F 49% 29.96 in 10.0 mi WSW 5.8 mph - N/A   Clear
6:35 PM 87.8 °F 91.4 °F 68.0 °F 52% 29.97 in 10.0 mi SW 4.6 mph - N/A   Clear
6:55 PM 87.8 °F 91.4 °F 68.0 °F 52% 29.97 in 10.0 mi Calm Calm - N/A   Clear
7:15 PM 84.2 °F 88.4 °F 69.8 °F 62% 29.98 in 10.0 mi Calm Calm - N/A   Clear
7:35 PM 80.6 °F 84.6 °F 71.6 °F 74% 29.98 in 10.0 mi Calm Calm - N/A   Clear
7:55 PM 78.8 °F - 71.6 °F 78% 29.99 in 4.0 mi Calm Calm - N/A   Clear
8:15 PM 77.0 °F - 71.6 °F 83% 30.00 in 10.0 mi Calm Calm - N/A   Clear
8:35 PM 75.2 °F - 71.6 °F 89% 30.01 in 10.0 mi Calm Calm - N/A   Clear
8:55 PM 75.2 °F - 71.6 °F 89% 30.02 in 10.0 mi Calm Calm - N/A   Partly Cloudy
9:35 PM 73.4 °F - 69.8 °F 88% 30.03 in 10.0 mi Calm Calm - N/A   Partly Cloudy
9:55 PM 73.4 °F - 69.8 °F 88% 30.03 in 10.0 mi Calm Calm - N/A   Clear
10:15 PM 71.6 °F - 68.0 °F 88% 30.04 in 10.0 mi WNW 4.6 mph - N/A   Clear
10:35 PM 73.4 °F - 68.0 °F 83% 30.04 in 10.0 mi West 4.6 mph - N/A   Clear
10:55 PM 73.4 °F - 68.0 °F 83% 30.05 in 10.0 mi West 3.5 mph - N/A   Clear
11:15 PM 69.8 °F - 66.2 °F 88% 30.05 in 9.0 mi Calm Calm - N/A   Clear
11:35 PM 69.8 °F - 66.2 °F 88% 30.06 in 8.0 mi Calm Calm - N/A   Clear
11:55 PM 69.8 °F - 66.2 °F 88% 30.07 in 8.0 mi Calm Calm - N/A   Mostly Cloudy